Location: Antoign�
(47.0844°N, 0.1131°W)
Time: 08:24:44
(UTC+00:00)

SL-8 Rocket - Pass Details

Date: 03 March 2021
Orbit: 957 x 991 km, 82.9° (Epoch: 11 April)

Event Time Altitude Azimuth Distance (km) Brightness Sun altitude
Rises 19:50:36 0° 189° (S) 3,669 7.0 -21.4°
Reaches altitude 10° 19:53:07 10° 190° (S) 2,720 6.3 -21.8°
Maximum altitude 19:59:22 82° 279° (W) 987 4.0 -22.8°
Drops below altitude 10° 20:05:36 10° 7° (N) 2,715 6.4 -23.8°
Sets 20:08:07 0° 9° (N) 3,662 7.1 -24.2°
